EDT,Max TemperatureF,Mean TemperatureF,Min TemperatureF,Max Dew PointF,MeanDew PointF,Min DewpointF,Max Humidity, Mean Humidity, Min Humidity, Max Sea Level PressureIn, Mean Sea Level PressureIn, Min Sea Level PressureIn, Max VisibilityMiles, Mean VisibilityMiles, Min VisibilityMiles, Max Wind SpeedMPH, Mean Wind SpeedMPH, Max Gust SpeedMPH,PrecipitationIn, CloudCover, Events, WindDirDegrees
2011-10-1,75,66,59,65,62,56,94,87,73,29.76,29.64,29.58,10,6,1,9,4,,0.92,8,Rain-Thunderstorm,34
2011-10-2,66,62,57,61,58,55,94,87,73,29.91,29.82,29.76,10,7,2,9,3,16,0.01,8,Rain,8
2011-10-3,69,60,53,57,53,46,100,87,47,30.06,29.99,29.91,10,6,0,8,1,,0.02,6,Fog-Rain,238
2011-10-4,68,60,55,56,54,51,94,85,59,30.03,29.94,29.88,10,7,2,10,4,43,0.82,7,Rain-Thunderstorm,334
2011-10-5,69,56,42,53,46,34,87,68,37,30.23,29.99,29.88,10,10,10,16,6,24,0.03,3,Rain,322
2011-10-6,64,50,37,37,31,22,89,55,21,30.35,30.26,30.21,10,10,10,15,4,23,0.00,0,,312
2011-10-7,64,50,36,43,35,27,89,66,26,30.46,30.41,30.36,10,10,10,6,1,,0.00,0,,284
2011-10-8,81,62,44,55,48,40,94,73,35,30.42,30.36,30.33,10,8,0,8,1,,0.00,0,Fog,276
2011-10-9,86,66,46,57,49,44,93,76,28,30.34,30.30,30.22,10,6,0,8,1,16,0.00,0,Fog,288
2011-10-10,84,65,46,61,50,45,100,81,39,30.21,30.17,30.08,10,5,0,9,1,,0.00,1,Fog,300
2011-10-11,68,56,46,52,48,45,100,84,50,30.24,30.20,30.16,10,5,0,8,1,,0.00,2,Fog,62
2011-10-12,61,56,50,55,50,46,94,76,59,30.24,30.16,30.06,10,9,2,10,4,17,0.02,6,Rain,58
2011-10-13,64,62,59,61,59,56,94,89,87,30.04,29.84,29.77,10,4,1,13,7,21,0.89,8,Rain,29
2011-10-14,73,66,60,70,63,57,94,90,80,29.78,29.57,29.33,10,5,0,16,3,79,0.65,8,Fog-Rain,132
2011-10-15,66,60,55,52,43,34,72,54,37,29.68,29.55,29.42,10,10,10,16,12,31,0.00,1,,227
2011-10-16,66,60,54,48,38,34,60,46,34,29.79,29.73,29.66,10,10,10,22,9,33,0.00,2,,227
2011-10-17,66,58,52,55,41,30,81,52,29,29.74,29.67,29.58,10,10,10,17,9,30,0.01,1,Rain,233
2011-10-18,70,56,44,45,39,31,90,58,24,29.95,29.84,29.73,10,10,10,10,4,,0.00,3,,244
2011-10-19,60,52,46,57,54,44,94,90,78,29.97,29.79,29.59,10,5,2,16,5,26,1.00,7,Rain,46
2011-10-20,72,64,57,64,54,43,94,79,49,29.67,29.54,29.45,10,6,2,20,8,34,0.72,5,Rain,162
2011-10-21,64,57,48,44,41,38,77,60,41,29.96,29.82,29.69,10,10,10,15,6,22,0.00,2,,227
2011-10-22,64,54,43,43,41,39,86,66,43,30.07,30.00,29.96,10,10,10,13,3,18,0.00,6,,272
2011-10-23,55,45,35,44,37,33,93,79,47,30.16,30.11,30.07,10,8,1,6,1,,0.00,2,,270
2011-10-24,63,48,33,46,37,30,93,80,48,30.16,30.10,29.95,10,6,0,12,1,18,0.00,2,Fog,181
2011-10-25,62,50,39,47,38,31,93,66,36,29.99,29.91,29.86,10,8,0,22,5,30,0.00,2,Fog-Rain,282
2011-10-26,50,44,37,43,39,33,86,78,68,30.01,29.88,29.78,10,10,10,5,0,,0.04,7,Rain,180
2011-10-27,48,40,33,45,40,32,93,88,80,29.88,29.74,29.67,10,5,2,14,5,20,0.94,8,Rain-Snow,7
2011-10-28,48,39,30,32,28,22,89,67,36,30.26,30.13,29.91,10,10,10,14,6,20,0.00,1,,312
2011-10-29,48,40,32,37,33,28,93,82,53,30.26,30.02,29.74,10,5,1,18,7,30,1.04,6,Rain-Snow,29
2011-10-30,46,38,30,31,30,26,89,77,47,30.30,29.88,29.70,10,6,1,17,13,36,0.18,5,Snow,330
2011-10-31,53,40,28,35,28,24,89,69,35,30.42,30.38,30.32,10,9,6,6,1,,0.00,0,,184